Regional Weather Roundup
Issued by NWS Sioux Falls, SD

Home | Current Version | Previous Version | Graphics & Text | Print | Product List | Glossary On
Versions: 1 2 3 4 5 6 7 8 9 10 11 12 13 14 15 16 17 18 19 20 21 22 23 24 25 26 27 28 29 30 31 32 33 34 35 36 37 38 39 40 41 42 43 44 45 46 47 48 49 50
000
ASUS43 KFSD 271810
RWRFSD

WEATHER ROUNDUP FOR SE SOUTH DAKOTA/SW MINNESOTA/NW IOWA
NATIONAL WEATHER SERVICE SIOUX FALLS SD
100 PM CDT FRI MAY 27 2016

NOTE: "FAIR" INDICATES FEW OR NO CLOUDS BELOW 12,000 FEET WITH NO
SIGNIFICANT WEATHER AND OR OBSTRUCTIONS TO VISIBILITY.


SDZ038>040-050-052>070-271900-
SOUTHEAST SOUTH DAKOTA

CITY           SKY/WX    TMP DP  RH WIND       PRES   REMARKS
BROOKINGS      CLOUDY    64  58  80 W8        29.78S
CHAMBERLAIN    LGT RAIN  59  59  99 N16       29.79F
6HR MIN TEMP:  58; 6HR MAX TEMP:  62; 6HR PCP:  0.52;

HURON          LGT RAIN  63  60  90 W7        29.79S
6HR MIN TEMP:  60; 6HR MAX TEMP:  64; 6HR PCP:  0.01;

MADISON        FAIR      64  64 100 SW5       29.78S
MITCHELL       CLOUDY    65  61  87 W15       29.80R
6HR MIN TEMP:  60; 6HR MAX TEMP:  66; 6HR PCP:  0.19;

SIOUX FALLS    CLOUDY    71  58  63 VRB3      29.76S
6HR MIN TEMP:  61; 6HR MAX TEMP:  71; 6HR PCP:  0.02;

WINNER         MOCLDY    65  55  70 N13       29.80F
YANKTON        MOSUNNY   70  57  64 E6        29.75R
$$

MNZ071-072-080-081-089-090-097-098-271900-
SOUTHWEST MINNESOTA

CITY           SKY/WX    TMP DP  RH WIND       PRES   REMARKS
FAIRMONT       CLOUDY    66  59  77 SE8       29.77S
JACKSON        CLOUDY    70  54  56 SW3       29.78R
LUVERNE        SUNNY     68  54  60 CALM      29.76F
MARSHALL       CLOUDY    71  56  58 W10G18    29.76S
6HR MIN TEMP:  62; 6HR MAX TEMP:  72;

MONTEVIDEO     CLOUDY    77  55  47 W6        29.76S
PIPESTONE      MOSUNNY   70  55  60 NW3       29.77S
REDWOOD FALLS  CLOUDY    72  58  61 SE10      29.75F
TRACY          CLOUDY    73  57  57 SW8       29.77R
WINDOM         PTSUNNY   70  57  64 CALM      29.77S
WORTHINGTON    PTSUNNY   68  57  68 CALM      29.77F
$$

IAZ001>003-012>014-020>022-031-032-NEZ013-014-SDZ071-271900-
NORTHWEST IOWA

CITY           SKY/WX    TMP DP  RH WIND       PRES   REMARKS
CHEROKEE       PTSUNNY   72  62  70 S5        29.76R
ESTHERVILLE    CLOUDY    66  59  78 SE10      29.77S
LE MARS        MOSUNNY   72  61  68 VRB6      29.77R
ORANGE CITY    PTSUNNY   70  57  64 CALM      29.76S
SHELDON        PTSUNNY   70  57  64 SW6       29.75S
SIOUX CITY     PTSUNNY   73  59  61 E3        29.76R
6HR MIN TEMP:  63; 6HR MAX TEMP:  74; 6HR PCP: TRACE;

SPENCER        PTSUNNY   70  58  65 SE7       29.76R
6HR MIN TEMP:  59; 6HR MAX TEMP:  71; 6HR PCP: TRACE;

STORM LAKE       N/A     70  59  68 S8        29.77S
$$

ABBREVIATIONS USED IN REMARKS
   TC - TEMPERATURE IN CELSIUS
  WCI - WIND CHILL INDEX
   HX - HEAT INDEX
  VSB - VISIBILITY





USA.gov is the U.S. government's official web portal to all federal, state and local government web resources and services.